| time (UTC) | temp F | wind direction | speed knots | gust knots | rain 1hr in | rain 24hr in | rain mn in | humidity % | barometer mb |
| 20260510171441 | 87 | 295 | 2.6 | 5.2 | 0.00 | 0.00 | 0.00 | 75 | 1013.8 |
| 20260510170935 | 87 | 355 | 2.6 | 6.1 | 0.00 | 0.00 | 0.00 | 75 | 1013.7 |
| 20260510170429 | 87 | 326 | 2.6 | 6.1 | 0.00 | 0.00 | 0.00 | 74 | 1013.7 |
| 20260510165922 | 87 | 326 | 3.5 | 8.7 | 0.00 | 0.00 | 0.00 | 77 | 1014.0 |
| 20260510165417 | 86 | 347 | 3.5 | 10.4 | 0.00 | 0.00 | 0.00 | 76 | 1013.9 |
| 20260510164911 | 88 | 284 | 1.7 | 10.4 | 0.00 | 0.00 | 0.00 | 72 | 1014.0 |
| 20260510164406 | 88 | 35 | 0.9 | 3.5 | 0.00 | 0.00 | 0.00 | 71 | 1013.9 |
| 20260510163858 | 88 | 199 | 0.9 | 3.5 | 0.00 | 0.00 | 0.00 | 75 | 1014.1 |
| 20260510163616 | 87 | 45 | 1.7 | 4.3 | 0.00 | 0.00 | 0.00 | 73 | 1014.2 |
| 20260510162847 | 87 | 231 | 1.7 | 4.3 | 0.00 | 0.00 | 0.00 | 73 | 1014.3 |
| 20260510162602 | 87 | 236 | 1.7 | 4.3 | 0.00 | 0.00 | 0.00 | 76 | 1014.3 |
| 20260510161835 | 86 | 243 | 1.7 | 6.1 | 0.00 | 0.00 | 0.00 | 75 | 1014.4 |
| 20260510161328 | 86 | 219 | 2.6 | 6.1 | 0.00 | 0.00 | 0.00 | 75 | 1014.6 |
| 20260510160823 | 86 | 291 | 2.6 | 5.2 | 0.00 | 0.00 | 0.00 | 76 | 1014.5 |
| 20260510160536 | 85 | 219 | 3.5 | 8.7 | 0.00 | 0.00 | 0.00 | 76 | 1014.5 |
| 20260510155811 | 86 | 214 | 3.5 | 8.7 | 0.00 | 0.00 | 0.00 | 75 | 1014.7 |
| 20260510155306 | 86 | 139 | 3.5 | 7.8 | 0.00 | 0.00 | 0.00 | 75 | 1014.8 |
| 20260510154759 | 86 | 159 | 3.5 | 7.8 | 0.00 | 0.00 | 0.00 | 76 | 1014.6 |
| 20260510154518 | 87 | 199 | 3.5 | 7.8 | 0.00 | 0.00 | 0.00 | 75 | 1014.6 |
| 20260510153746 | 87 | 126 | 3.5 | 7.8 | 0.00 | 0.00 | 0.00 | 76 | 1014.6 |
| 20260510153241 | 86 | 151 | 3.5 | 8.7 | 0.00 | 0.00 | 0.00 | 77 | 1014.6 |
| 20260510152953 | 86 | 225 | 3.5 | 8.7 | 0.00 | 0.00 | 0.00 | 77 | 1014.6 |
| 20260510152229 | 86 | 185 | 2.6 | 7.0 | 0.00 | 0.00 | 0.00 | 80 | 1014.7 |
| 20260510151949 | 85 | 269 | 2.6 | 7.0 | 0.00 | 0.00 | 0.00 | 81 | 1014.7 |
| 20260510151216 | 84 | 198 | 2.6 | 5.2 | 0.00 | 0.00 | 0.00 | 82 | 1014.8 |
| 20260510150711 | 84 | 231 | 2.6 | 5.2 | 0.00 | 0.00 | 0.00 | 83 | 1014.8 |
| 20260510150204 | 84 | 245 | 2.6 | 6.1 | 0.00 | 0.00 | 0.00 | 82 | 1014.7 |
| 20260510145659 | 84 | 209 | 2.6 | 10.4 | 0.00 | 0.00 | 0.00 | 81 | 1014.7 |
| 20260510145153 | 84 | 127 | 4.3 | 10.4 | 0.00 | 0.00 | 0.00 | 83 | 1014.7 |
| 20260510144647 | 83 | 217 | 4.3 | 7.0 | 0.00 | 0.00 | 0.00 | 82 | 1014.6 |
| 20260510144141 | 83 | 146 | 3.5 | 7.0 | 0.00 | 0.00 | 0.00 | 83 | 1014.6 |
| 20260510143635 | 83 | 226 | 2.6 | 6.1 | 0.00 | 0.00 | 0.00 | 85 | 1014.5 |
| 20260510143404 | 82 | 131 | 2.6 | 6.1 | 0.00 | 0.00 | 0.00 | 86 | 1014.5 |
| 20260510142636 | 82 | 225 | 3.5 | 7.0 | 0.00 | 0.00 | 0.00 | 86 | 1014.6 |
| 20260510142117 | 81 | 236 | 3.5 | 7.0 | 0.00 | 0.00 | 0.00 | 87 | 1014.5 |
| 20260510141611 | 81 | 219 | 2.6 | 7.0 | 0.00 | 0.00 | 0.00 | 87 | 1014.6 |
| 20260510141327 | 81 | 185 | 3.5 | 7.0 | 0.00 | 0.00 | 0.00 | 88 | 1014.6 |
| 20260510140559 | 81 | 213 | 3.5 | 7.8 | 0.00 | 0.00 | 0.00 | 88 | 1014.6 |
| 20260510140053 | 80 | 178 | 2.6 | 7.8 | 0.00 | 0.00 | 0.00 | 87 | 1014.4 |
| 20260510135547 | 80 | 217 | 2.6 | 6.1 | 0.00 | 0.00 | 0.00 | 89 | 1014.4 |
| 20260510135041 | 80 | 108 | 2.6 | 6.1 | 0.00 | 0.00 | 0.00 | 89 | 1014.4 |
| 20260510134534 | 80 | 146 | 1.7 | 6.1 | 0.00 | 0.00 | 0.00 | 91 | 1014.3 |
| 20260510134029 | 79 | 152 | 2.6 | 5.2 | 0.00 | 0.00 | 0.00 | 91 | 1014.3 |
| 20260510133524 | 79 | 207 | 3.5 | 7.0 | 0.00 | 0.00 | 0.00 | 93 | 1014.3 |
| 20260510133024 | 78 | 216 | 3.5 | 7.0 | 0.00 | 0.00 | 0.00 | 94 | 1014.3 |
| 20260510132511 | 77 | 213 | 1.7 | 6.1 | 0.00 | 0.00 | 0.00 | 95 | 1014.3 |
| 20260510132005 | 77 | 225 | 1.7 | 6.1 | 0.00 | 0.00 | 0.00 | 97 | 1014.1 |
| 20260510131459 | 76 | 231 | 3.5 | 6.1 | 0.00 | 0.00 | 0.00 | 98 | 1014.1 |
| 20260510130953 | 76 | 218 | 2.6 | 6.1 | 0.00 | 0.00 | 0.00 | 98 | 1014.2 |
| 20260510130447 | 76 | 236 | 0.0 | 3.5 | 0.00 | 0.00 | 0.00 | 99 | 1014.1 |
| 20260510125941 | 76 | 225 | 0.0 | 0.0 | 0.00 | 0.00 | 0.00 | 100 | 1014.1 |
| 20260510125435 | 75 | 213 | 0.0 | 0.0 | 0.00 | 0.00 | 0.00 | 100 | 1014.1 |
| 20260510125116 | 74 | 231 | 0.0 | 0.0 | 0.00 | 0.00 | 0.00 | 100 | 1014.0 |
| 20260510125007 | 75 | 229 | 0.0 | 0.0 | 0.00 | 0.00 | 0.00 | 100 | 1014.0 |
| 20260510124519 | 75 | 229 | 0.0 | 0.0 | 0.00 | 0.00 | 0.00 | 100 | 1014.0 |
| 20260510123631 | 74 | 237 | 0.0 | 0.0 | 0.00 | 0.00 | 0.00 | 100 | 1014.0 |
| 20260510122905 | 74 | 257 | 0.0 | 0.0 | 0.00 | 0.00 | 0.00 | 100 | 1013.9 |
| 20260510122358 | 74 | 265 | 0.0 | 0.0 | 0.00 | 0.00 | 0.00 | 100 | 1013.9 |
| 20260510121853 | 74 | 250 | 0.0 | 0.0 | 0.00 | 0.00 | 0.00 | 100 | 1013.8 |
| 20260510121347 | 73 | 265 | 0.0 | 0.0 | 0.00 | 0.00 | 0.00 | 100 | 1013.7 |
| 20260510121100 | 73 | 265 | 0.0 | 0.0 | 0.00 | 0.00 | 0.00 | 100 | 1013.6 |
| 20260510120332 | 73 | 265 | 0.0 | 0.0 | 0.00 | 0.00 | 0.00 | 100 | 1013.6 |
| 20260510115832 | 73 | 265 | 0.0 | 0.0 | 0.00 | 0.00 | 0.00 | 100 | 1013.4 |
| 20260510115336 | 72 | 263 | 0.0 | 0.0 | 0.00 | 0.00 | 0.00 | 100 | 1013.3 |
| 20260510114836 | 72 | 265 | 0.0 | 0.0 | 0.00 | 0.00 | 0.00 | 100 | 1013.2 |
| 20260510114330 | 72 | 263 | 0.0 | 0.0 | 0.00 | 0.00 | 0.00 | 100 | 1013.2 |
| 20260510114310 | 72 | 265 | 0.0 | 0.0 | 0.00 | 0.00 | 0.00 | 100 | 1013.2 |
| 20260510113330 | 72 | 265 | 0.0 | 0.0 | 0.00 | 0.00 | 0.00 | 100 | 1013.1 |
| 20260510112828 | 71 | 265 | 0.0 | 0.0 | 0.00 | 0.00 | 0.00 | 100 | 1013.0 |
| 20260510112549 | 71 | 265 | 0.0 | 0.0 | 0.00 | 0.00 | 0.00 | 100 | 1013.0 |
| 20260510111828 | 71 | 263 | 0.0 | 0.0 | 0.00 | 0.00 | 0.00 | 100 | 1012.9 |
| 20260510111330 | 71 | 265 | 0.0 | 0.0 | 0.00 | 0.00 | 0.00 | 100 | 1012.9 |
| 20260510110828 | 71 | 263 | 0.0 | 0.0 | 0.00 | 0.00 | 0.00 | 100 | 1012.9 |
| 20260510110330 | 71 | 264 | 0.0 | 0.0 | 0.00 | 0.00 | 0.00 | 100 | 1012.7 |
| 20260510105825 | 71 | 265 | 0.0 | 0.0 | 0.00 | 0.00 | 0.00 | 100 | 1012.6 |
| 20260510105552 | 71 | 265 | 0.0 | 0.0 | 0.00 | 0.00 | 0.00 | 100 | 1012.5 |
| 20260510105314 | 71 | 265 | 0.0 | 0.0 | 0.00 | 0.00 | 0.00 | 100 | 1012.5 |
| 20260510104325 | 71 | 263 | 0.0 | 0.0 | 0.00 | 0.00 | 0.00 | 100 | 1012.4 |
| 20260510103825 | 71 | 265 | 0.0 | 0.0 | 0.00 | 0.00 | 0.00 | 100 | 1012.4 |
| 20260510103550 | 71 | 265 | 0.0 | 0.0 | 0.00 | 0.00 | 0.00 | 100 | 1012.3 |
| 20260510102824 | 72 | 265 | 0.0 | 0.0 | 0.00 | 0.00 | 0.00 | 100 | 1012.2 |
| 20260510102324 | 72 | 265 | 0.0 | 0.0 | 0.00 | 0.00 | 0.00 | 100 | 1012.2 |
| 20260510101826 | 72 | 263 | 0.0 | 0.0 | 0.00 | 0.00 | 0.00 | 100 | 1012.2 |
| 20260510101320 | 72 | 265 | 0.0 | 0.0 | 0.00 | 0.00 | 0.00 | 100 | 1012.1 |
| 20260510100820 | 72 | 265 | 0.0 | 0.0 | 0.00 | 0.00 | 0.00 | 100 | 1012.0 |
| 20260510100322 | 72 | 263 | 0.0 | 0.0 | 0.00 | 0.00 | 0.00 | 100 | 1012.0 |
| 20260510095821 | 72 | 263 | 0.0 | 0.0 | 0.00 | 0.00 | 0.00 | 100 | 1011.9 |
| 20260510095320 | 72 | 263 | 0.0 | 0.0 | 0.00 | 0.00 | 0.00 | 100 | 1011.8 |
| 20260510094821 | 72 | 265 | 0.0 | 0.0 | 0.00 | 0.00 | 0.00 | 100 | 1011.8 |
| 20260510094321 | 73 | 265 | 0.0 | 0.0 | 0.00 | 0.00 | 0.00 | 100 | 1011.8 |
| 20260510093820 | 72 | 265 | 0.0 | 0.0 | 0.00 | 0.00 | 0.00 | 100 | 1011.8 |
| 20260510093322 | 73 | 263 | 0.0 | 0.0 | 0.00 | 0.00 | 0.00 | 100 | 1011.7 |
| 20260510093044 | 72 | 263 | 0.0 | 0.0 | 0.00 | 0.00 | 0.00 | 100 | 1011.7 |
| 20260510092321 | 72 | 225 | 0.0 | 0.0 | 0.00 | 0.00 | 0.00 | 100 | 1011.7 |
| 20260510091821 | 72 | 137 | 0.0 | 0.0 | 0.00 | 0.00 | 0.00 | 100 | 1011.6 |
| 20260510091322 | 73 | 137 | 0.0 | 0.0 | 0.00 | 0.00 | 0.00 | 100 | 1011.6 |
| 20260510091040 | 73 | 152 | 0.0 | 0.0 | 0.00 | 0.00 | 0.00 | 100 | 1011.6 |
| 20260510090321 | 73 | 146 | 0.0 | 0.0 | 0.00 | 0.00 | 0.00 | 100 | 1011.6 |
| 20260510085821 | 73 | 160 | 0.0 | 0.0 | 0.00 | 0.00 | 0.00 | 100 | 1011.5 |
| 20260510085322 | 73 | 122 | 0.0 | 0.0 | 0.00 | 0.00 | 0.00 | 100 | 1011.5 |
| 20260510084822 | 73 | 129 | 0.0 | 0.0 | 0.00 | 0.00 | 0.00 | 100 | 1011.4 |
| 20260510084538 | 73 | 129 | 0.0 | 0.0 | 0.00 | 0.00 | 0.00 | 100 | 1011.2 |
| 20260510084036 | 73 | 136 | 0.0 | 0.0 | 0.00 | 0.00 | 0.00 | 100 | 1011.3 |
| 20260510083309 | 73 | 184 | 0.0 | 0.0 | 0.00 | 0.00 | 0.00 | 100 | 1011.2 |
| 20260510082803 | 73 | 161 | 0.0 | 0.0 | 0.00 | 0.00 | 0.00 | 100 | 1011.3 |
| 20260510082257 | 73 | 161 | 0.0 | 0.0 | 0.00 | 0.00 | 0.00 | 100 | 1011.3 |
| 20260510082012 | 73 | 161 | 0.0 | 0.0 | 0.00 | 0.00 | 0.00 | 100 | 1011.2 |
| 20260510081245 | 73 | 161 | 0.0 | 0.0 | 0.00 | 0.00 | 0.00 | 100 | 1011.2 |
| 20260510080958 | 73 | 131 | 0.0 | 0.0 | 0.00 | 0.00 | 0.00 | 100 | 1011.1 |
| 20260510080233 | 73 | 129 | 0.0 | 0.0 | 0.00 | 0.00 | 0.00 | 100 | 1011.0 |
| 20260510075949 | 73 | 128 | 0.0 | 0.0 | 0.00 | 0.00 | 0.00 | 100 | 1011.0 |
| 20260510075221 | 73 | 116 | 0.0 | 1.7 | 0.00 | 0.00 | 0.00 | 100 | 1011.0 |
| 20260510074714 | 73 | 123 | 0.9 | 2.6 | 0.00 | 0.00 | 0.00 | 100 | 1011.0 |
| 20260510074209 | 73 | 136 | 0.9 | 3.5 | 0.00 | 0.00 | 0.00 | 100 | 1010.9 |
| 20260510074128 | 73 | 57 | 0.9 | 3.5 | 0.00 | 0.00 | 0.00 | 100 | 1010.9 |
| 20260510073755 | 73 | 85 | 0.9 | 3.5 | 0.00 | 0.00 | 0.00 | 100 | 1010.9 |
| 20260510072651 | 73 | 82 | 0.9 | 4.3 | 0.00 | 0.00 | 0.00 | 100 | 1011.0 |
| 20260510072145 | 73 | 100 | 0.9 | 4.3 | 0.00 | 0.00 | 0.00 | 100 | 1011.2 |
| 20260510071639 | 73 | 129 | 0.9 | 3.5 | 0.00 | 0.00 | 0.00 | 100 | 1011.2 |
| 20260510071134 | 73 | 82 | 1.7 | 4.3 | 0.00 | 0.00 | 0.00 | 100 | 1011.2 |
| 20260510070848 | 73 | 184 | 1.7 | 6.1 | 0.00 | 0.00 | 0.00 | 100 | 1011.2 |
| 20260510070153 | 73 | 103 | 1.7 | 6.1 | 0.00 | 0.00 | 0.00 | 100 | 1011.3 |
| 20260510065614 | 73 | 139 | 0.9 | 3.5 | 0.00 | 0.00 | 0.00 | 100 | 1011.4 |
| 20260510065109 | 73 | 92 | 0.9 | 3.5 | 0.00 | 0.00 | 0.00 | 100 | 1011.3 |
| 20260510064824 | 73 | 108 | 0.9 | 3.5 | 0.00 | 0.00 | 0.00 | 100 | 1011.3 |
| 20260510064057 | 73 | 82 | 0.0 | 2.6 | 0.00 | 0.00 | 0.00 | 100 | 1011.4 |
| 20260510063555 | 73 | 101 | 0.0 | 0.0 | 0.00 | 0.00 | 0.00 | 100 | 1011.6 |
| 20260510063044 | 73 | 115 | 0.0 | 0.0 | 0.00 | 0.00 | 0.00 | 100 | 1011.6 |
| 20260510062539 | 73 | 108 | 0.0 | 0.9 | 0.00 | 0.00 | 0.00 | 100 | 1011.7 |
| 20260510062033 | 73 | 66 | 0.0 | 0.9 | 0.00 | 0.00 | 0.00 | 100 | 1011.9 |
| 20260510061527 | 73 | 236 | 0.0 | 0.0 | 0.00 | 0.00 | 0.00 | 100 | 1012.0 |
| 20260510061021 | 73 | 265 | 0.0 | 0.9 | 0.00 | 0.00 | 0.00 | 100 | 1012.0 |
| 20260510060515 | 72 | 238 | 0.0 | 0.9 | 0.00 | 0.00 | 0.00 | 100 | 1012.1 |
| 20260510060009 | 72 | 251 | 0.0 | 0.9 | 0.00 | 0.00 | 0.00 | 100 | 1012.2 |
| 20260510055502 | 72 | 108 | 0.0 | 0.0 | 0.00 | 0.00 | 0.00 | 100 | 1012.2 |
| 20260510054957 | 72 | 84 | 0.0 | 0.0 | 0.00 | 0.00 | 0.00 | 100 | 1012.3 |
| 20260510054451 | 72 | 85 | 0.0 | 0.0 | 0.00 | 0.00 | 0.00 | 100 | 1012.5 |
| 20260510053944 | 72 | 82 | 0.0 | 0.0 | 0.00 | 0.00 | 0.00 | 99 | 1012.4 |
| 20260510053658 | 72 | 82 | 0.0 | 0.0 | 0.00 | 0.00 | 0.00 | 99 | 1012.5 |
| 20260510052933 | 72 | 94 | 0.0 | 0.0 | 0.00 | 0.00 | 0.00 | 99 | 1012.5 |
| 20260510052912 | 72 | 103 | 0.0 | 0.0 | 0.00 | 0.00 | 0.00 | 99 | 1012.6 |
| 20260510051921 | 72 | 103 | 0.0 | 0.0 | 0.00 | 0.00 | 0.00 | 99 | 1012.6 |
| 20260510051637 | 72 | 103 | 0.0 | 0.0 | 0.00 | 0.00 | 0.00 | 99 | 1012.8 |
| 20260510050909 | 72 | 103 | 0.0 | 0.0 | 0.00 | 0.00 | 0.00 | 99 | 1012.9 |
| 20260510050403 | 73 | 100 | 0.0 | 0.0 | 0.00 | 0.00 | 0.00 | 99 | 1012.9 |
| 20260510045857 | 73 | 99 | 0.0 | 0.0 | 0.00 | 0.00 | 0.00 | 99 | 1012.9 |
| 20260510045351 | 73 | 236 | 0.0 | 0.0 | 0.00 | 0.00 | 0.00 | 99 | 1013.0 |
| 20260510044845 | 73 | 236 | 0.0 | 0.0 | 0.00 | 0.00 | 0.00 | 99 | 1013.0 |
| 20260510044339 | 73 | 237 | 0.0 | 0.0 | 0.00 | 0.00 | 0.00 | 99 | 1013.0 |
| 20260510043833 | 73 | 237 | 0.0 | 0.0 | 0.00 | 0.00 | 0.00 | 98 | 1013.1 |
| 20260510043327 | 73 | 240 | 0.0 | 0.0 | 0.00 | 0.00 | 0.00 | 98 | 1013.1 |
| 20260510042820 | 73 | 240 | 0.0 | 0.0 | 0.00 | 0.00 | 0.00 | 99 | 1013.1 |
| 20260510042315 | 73 | 260 | 0.0 | 0.0 | 0.00 | 0.00 | 0.00 | 99 | 1013.1 |
| 20260510042028 | 73 | 258 | 0.0 | 0.0 | 0.00 | 0.00 | 0.00 | 99 | 1013.1 |
| 20260510041526 | 73 | 265 | 0.0 | 0.0 | 0.00 | 0.00 | 0.00 | 100 | 1013.0 |
| 20260510040757 | 73 | 250 | 0.0 | 0.0 | 0.00 | 0.00 | 0.00 | 100 | 1013.1 |
| 20260510040250 | 73 | 116 | 0.0 | 0.0 | 0.00 | 0.00 | 0.00 | 100 | 1013.0 |
| 20260510035745 | 73 | 146 | 0.0 | 0.0 | 0.00 | 0.00 | 0.00 | 100 | 1013.1 |
| 20260510035239 | 73 | 146 | 0.0 | 0.0 | 0.00 | 0.00 | 0.00 | 100 | 1013.0 |
| 20260510034951 | 73 | 136 | 0.0 | 0.0 | 0.00 | 0.00 | 0.00 | 99 | 1013.0 |
| 20260510034453 | 73 | 151 | 0.0 | 0.0 | 0.00 | 0.00 | 0.00 | 100 | 1013.1 |
| 20260510033721 | 73 | 78 | 0.0 | 0.0 | 0.00 | 0.00 | 0.00 | 99 | 1013.2 |
| 20260510033215 | 73 | 70 | 0.0 | 0.0 | 0.00 | 0.00 | 0.00 | 99 | 1013.2 |
| 20260510032709 | 73 | 57 | 0.0 | 0.0 | 0.00 | 0.00 | 0.00 | 99 | 1013.1 |
| 20260510032203 | 73 | 46 | 0.0 | 0.0 | 0.00 | 0.00 | 0.00 | 99 | 1013.1 |
| 20260510031657 | 73 | 46 | 0.0 | 0.0 | 0.00 | 0.00 | 0.00 | 99 | 1013.0 |
| 20260510031151 | 73 | 39 | 0.0 | 0.0 | 0.00 | 0.00 | 0.00 | 99 | 1013.1 |
| 20260510030911 | 73 | 32 | 0.0 | 0.0 | 0.00 | 0.00 | 0.00 | 99 | 1013.1 |
| 20260510030139 | 73 | 314 | 0.0 | 0.0 | 0.00 | 0.00 | 0.00 | 99 | 1013.1 |
| 20260510025633 | 73 | 302 | 0.0 | 0.0 | 0.00 | 0.00 | 0.00 | 99 | 1013.1 |
| 20260510025348 | 73 | 293 | 0.0 | 0.0 | 0.00 | 0.00 | 0.00 | 99 | 1013.0 |
| 20260510024621 | 73 | 294 | 0.0 | 0.0 | 0.00 | 0.00 | 0.00 | 99 | 1013.0 |
| 20260510024335 | 73 | 295 | 0.0 | 0.0 | 0.00 | 0.00 | 0.00 | 99 | 1012.9 |
| 20260510023609 | 73 | 294 | 0.0 | 0.0 | 0.00 | 0.00 | 0.00 | 98 | 1012.8 |
| 20260510023321 | 73 | 295 | 0.0 | 0.0 | 0.00 | 0.00 | 0.00 | 98 | 1012.7 |
| 20260510022557 | 74 | 276 | 0.0 | 0.0 | 0.00 | 0.00 | 0.00 | 98 | 1012.8 |
| 20260510022051 | 74 | 269 | 0.0 | 0.0 | 0.00 | 0.00 | 0.00 | 98 | 1012.6 |
| 20260510021545 | 74 | 265 | 0.0 | 0.0 | 0.00 | 0.00 | 0.00 | 98 | 1012.4 |
| 20260510021038 | 74 | 265 | 0.0 | 0.9 | 0.00 | 0.00 | 0.00 | 98 | 1012.4 |
| 20260510020532 | 74 | 261 | 0.0 | 0.9 | 0.00 | 0.00 | 0.00 | 99 | 1012.4 |
| 20260510020027 | 73 | 245 | 0.0 | 0.0 | 0.00 | 0.00 | 0.00 | 98 | 1012.4 |
| 20260510015521 | 74 | 246 | 0.0 | 0.0 | 0.00 | 0.00 | 0.00 | 98 | 1012.4 |
| 20260510015232 | 74 | 277 | 0.0 | 0.0 | 0.00 | 0.00 | 0.00 | 98 | 1012.1 |
| 20260510014509 | 74 | 108 | 0.0 | 0.0 | 0.00 | 0.00 | 0.00 | 98 | 1012.4 |
| 20260510014003 | 74 | 71 | 0.0 | 0.0 | 0.00 | 0.00 | 0.00 | 98 | 1012.0 |
| 20260510013457 | 74 | 70 | 0.0 | 0.0 | 0.00 | 0.00 | 0.00 | 98 | 1012.2 |
| 20260510012951 | 74 | 71 | 0.0 | 0.0 | 0.00 | 0.00 | 0.00 | 98 | 1012.2 |
| 20260510012444 | 74 | 69 | 0.9 | 3.5 | 0.00 | 0.00 | 0.00 | 98 | 1012.1 |
| 20260510011939 | 74 | 63 | 0.9 | 3.5 | 0.00 | 0.00 | 0.00 | 98 | 1011.7 |
| 20260510011438 | 74 | 44 | 0.9 | 2.6 | 0.00 | 0.00 | 0.00 | 98 | 1011.8 |
| 20260510010939 | 74 | 57 | 0.0 | 2.6 | 0.00 | 0.00 | 0.00 | 98 | 1011.7 |
| 20260510010439 | 74 | 90 | 0.9 | 4.3 | 0.00 | 0.00 | 0.00 | 98 | 1011.5 |
| 20260510005938 | 74 | 53 | 0.9 | 4.3 | 0.00 | 0.00 | 0.00 | 98 | 1011.5 |
| 20260510005438 | 74 | 57 | 0.9 | 3.5 | 0.00 | 0.00 | 0.00 | 97 | 1011.5 |
| 20260510004953 | 74 | 57 | 0.0 | 1.7 | 0.00 | 0.00 | 0.00 | 97 | 1011.6 |
| 20260510004446 | 74 | 13 | 0.0 | 2.6 | 0.00 | 0.00 | 0.00 | 97 | 1011.7 |
| 20260510003938 | 74 | 314 | 0.9 | 4.3 | 0.00 | 0.00 | 0.00 | 97 | 1011.8 |
| 20260510003438 | 75 | 314 | 0.9 | 4.3 | 0.00 | 0.00 | 0.00 | 97 | 1011.7 |
| 20260510003156 | 75 | 32 | 0.0 | 4.3 | 0.00 | 0.00 | 0.00 | 97 | 1011.6 |
| 20260510002435 | 75 | 328 | 0.0 | 0.9 | 0.00 | 0.00 | 0.00 | 97 | 1011.6 |
| 20260510001936 | 75 | 285 | 0.9 | 2.6 | 0.00 | 0.00 | 0.00 | 97 | 1011.5 |
| 20260510001437 | 75 | 305 | 1.7 | 4.3 | 0.00 | 0.00 | 0.00 | 97 | 1011.3 |
| 20260510000935 | 75 | 316 | 0.9 | 4.3 | 0.00 | 0.00 | 0.00 | 97 | 1011.4 |
| 20260510000435 | 75 | 314 | 1.7 | 4.3 | 0.00 | 0.00 | 0.00 | 97 | 1011.3 |
| 20260509235934 | 75 | 269 | 1.7 | 5.2 | 0.00 | 0.00 | 0.00 | 97 | 1011.2 |
| 20260509235435 | 76 | 296 | 0.9 | 5.2 | 0.00 | 0.00 | 0.00 | 97 | 1011.2 |
| 20260509234930 | 76 | 277 | 0.0 | 0.0 | 0.00 | 0.00 | 0.00 | 97 | 1011.1 |
| 20260509234652 | 76 | 319 | 0.0 | 0.0 | 0.00 | 0.00 | 0.00 | 97 | 1011.1 |
| 20260509233930 | 76 | 292 | 0.0 | 0.0 | 0.00 | 0.00 | 0.00 | 97 | 1011.1 |
| 20260509233429 | 76 | 305 | 0.0 | 4.3 | 0.00 | 0.00 | 0.00 | 97 | 1011.2 |
| 20260509233148 | 76 | 273 | 0.9 | 4.3 | 0.00 | 0.00 | 0.00 | 96 | 1011.2 |
| 20260509232429 | 76 | 293 | 1.7 | 4.3 | 0.00 | 0.00 | 0.00 | 96 | 1011.3 |
| 20260509232150 | 76 | 285 | 2.6 | 4.3 | 0.00 | 0.00 | 0.00 | 96 | 1011.3 |
| 20260509231431 | 76 | 283 | 0.9 | 4.3 | 0.00 | 0.00 | 0.00 | 96 | 1011.2 |
| 20260509230932 | 76 | 304 | 0.9 | 2.6 | 0.00 | 0.00 | 0.00 | 96 | 1011.0 |
| 20260509230432 | 76 | 304 | 0.9 | 2.6 | 0.00 | 0.00 | 0.00 | 96 | 1011.0 |
| 20260509230154 | 76 | 326 | 0.9 | 2.6 | 0.00 | 0.00 | 0.00 | 96 | 1010.9 |
| 20260509225646 | 76 | 295 | 0.9 | 4.3 | 0.00 | 0.00 | 0.00 | 96 | 1010.9 |
| 20260509224926 | 76 | 306 | 1.7 | 4.3 | 0.00 | 0.00 | 0.00 | 95 | 1010.9 |
| 20260509224424 | 76 | 297 | 1.7 | 5.2 | 0.00 | 0.00 | 0.00 | 95 | 1010.9 |
| 20260509223924 | 76 | 326 | 0.9 | 5.2 | 0.00 | 0.00 | 0.00 | 95 | 1010.8 |
| 20260509223424 | 77 | 333 | 0.9 | 5.2 | 0.00 | 0.00 | 0.00 | 95 | 1010.8 |
| 20260509222924 | 77 | 314 | 1.7 | 5.2 | 0.00 | 0.00 | 0.00 | 95 | 1010.8 |
| 20260509222425 | 77 | 326 | 1.7 | 5.2 | 0.00 | 0.00 | 0.00 | 94 | 1010.8 |
| 20260509221925 | 77 | 281 | 1.7 | 6.1 | 0.00 | 0.00 | 0.00 | 94 | 1010.8 |
| 20260509221640 | 77 | 314 | 1.7 | 6.1 | 0.00 | 0.00 | 0.00 | 94 | 1010.8 |
| 20260509220919 | 77 | 333 | 1.7 | 6.1 | 0.00 | 0.00 | 0.00 | 94 | 1010.7 |
| 20260509220421 | 77 | 321 | 1.7 | 6.1 | 0.00 | 0.00 | 0.00 | 94 | 1010.7 |
| 20260509220138 | 77 | 299 | 1.7 | 6.1 | 0.00 | 0.00 | 0.00 | 93 | 1010.7 |
| 20260509215424 | 77 | 298 | 2.6 | 7.8 | 0.00 | 0.00 | 0.00 | 93 | 1010.7 |
| 20260509214921 | 77 | 314 | 2.6 | 7.8 | 0.00 | 0.01 | 0.00 | 93 | 1010.7 |
| 20260509214420 | 77 | 326 | 2.6 | 6.1 | 0.00 | 0.06 | 0.00 | 93 | 1010.7 |
| 20260509213919 | 77 | 290 | 1.7 | 6.1 | 0.00 | 0.07 | 0.00 | 92 | 1010.7 |
| 20260509213421 | 77 | 293 | 1.7 | 5.2 | 0.00 | 0.07 | 0.00 | 92 | 1010.6 |
| 20260509212915 | 77 | 314 | 2.6 | 7.8 | 0.00 | 0.07 | 0.00 | 92 | 1010.5 |
| 20260509212415 | 77 | 290 | 2.6 | 7.8 | 0.00 | 0.07 | 0.00 | 92 | 1010.4 |
| 20260509211915 | 77 | 313 | 2.6 | 7.8 | 0.00 | 0.07 | 0.00 | 92 | 1010.4 |
| 20260509211414 | 77 | 321 | 2.6 | 7.8 | 0.00 | 0.08 | 0.00 | 92 | 1010.5 |
| 20260509210910 | 77 | 326 | 2.6 | 7.8 | 0.00 | 0.08 | 0.00 | 91 | 1010.5 |
| 20260509210409 | 77 | 309 | 2.6 | 7.0 | 0.00 | 0.08 | 0.00 | 91 | 1010.6 |
| 20260509205910 | 78 | 291 | 1.7 | 7.0 | 0.00 | 0.08 | 0.00 | 92 | 1010.6 |
| 20260509205409 | 78 | 314 | 1.7 | 5.2 | 0.00 | 0.08 | 0.00 | 92 | 1010.6 |
| 20260509204910 | 78 | 314 | 1.7 | 5.2 | 0.00 | 0.08 | 0.00 | 92 | 1010.5 |
| 20260509204410 | 78 | 47 | 2.6 | 5.2 | 0.00 | 0.08 | 0.00 | 92 | 1010.5 |
| 20260509203909 | 78 | 9 | 1.7 | 5.2 | 0.00 | 0.08 | 0.00 | 92 | 1010.5 |
| 20260509203407 | 78 | 23 | 1.7 | 5.2 | 0.00 | 0.08 | 0.00 | 93 | 1010.5 |
| 20260509202907 | 78 | 352 | 1.7 | 5.2 | 0.00 | 0.09 | 0.00 | 93 | 1010.5 |
| 20260509202632 | 78 | 349 | 2.6 | 7.0 | 0.00 | 0.11 | 0.00 | 92 | 1010.6 |
| 20260509201906 | 78 | 338 | 2.6 | 7.0 | 0.00 | 0.12 | 0.00 | 91 | 1010.6 |
| 20260509201638 | 78 | 10 | 3.5 | 7.8 | 0.00 | 0.12 | 0.00 | 89 | 1010.5 |
| 20260509200910 | 78 | 290 | 3.5 | 7.8 | 0.00 | 0.12 | 0.00 | 88 | 1010.7 |
| 20260509200628 | 78 | 292 | 1.7 | 7.8 | 0.00 | 0.12 | 0.00 | 87 | 1010.8 |
| 20260509195906 | 78 | 347 | 0.9 | 5.2 | 0.00 | 0.12 | 0.00 | 88 | 1010.6 |
| 20260509195407 | 78 | 311 | 0.0 | 3.5 | 0.00 | 0.13 | 0.00 | 87 | 1010.4 |
| 20260509194905 | 78 | 39 | 0.0 | 0.0 | 0.00 | 0.16 | 0.00 | 88 | 1010.1 |
| 20260509194404 | 78 | 314 | 0.9 | 2.6 | 0.00 | 0.17 | 0.00 | 89 | 1010.1 |
| 20260509193901 | 77 | 340 | 0.9 | 3.5 | 0.00 | 0.19 | 0.00 | 90 | 1010.1 |
| 20260509193403 | 78 | 357 | 0.9 | 3.5 | 0.00 | 0.21 | 0.00 | 90 | 1010.2 |
| 20260509192901 | 78 | 39 | 0.9 | 3.5 | 0.00 | 0.21 | 0.00 | 90 | 1010.3 |
| 20260509192401 | 78 | 354 | 1.7 | 3.5 | 0.00 | 0.21 | 0.00 | 90 | 1010.3 |
| 20260509191857 | 78 | 326 | 1.7 | 4.3 | 0.00 | 0.21 | 0.00 | 89 | 1010.2 |
| 20260509191357 | 78 | 327 | 3.5 | 7.0 | 0.00 | 0.21 | 0.00 | 88 | 1010.4 |
| 20260509191116 | 79 | 254 | 6.1 | 12.2 | 0.00 | 0.21 | 0.00 | 86 | 1010.4 |
| 20260509190401 | 80 | 242 | 7.8 | 13.9 | 0.00 | 0.21 | 0.00 | 86 | 1010.6 |
| 20260509190343 | 83 | 267 | 6.1 | 13.9 | 0.00 | 0.21 | 0.00 | 80 | 1010.8 |
| 20260509185415 | 85 | 254 | 3.5 | 8.7 | 0.00 | 0.21 | 0.00 | 78 | 1010.4 |
| 20260509184849 | 85 | 259 | 1.7 | 4.3 | 0.00 | 0.21 | 0.00 | 77 | 1010.2 |
| 20260509184342 | 86 | 290 | 0.9 | 4.3 | 0.00 | 0.21 | 0.00 | 77 | 1010.1 |
| 20260509183837 | 86 | 293 | 2.6 | 5.2 | 0.00 | 0.21 | 0.00 | 75 | 1010.1 |
| 20260509183331 | 86 | 277 | 2.6 | 5.2 | 0.00 | 0.21 | 0.00 | 74 | 1010.3 |
| 20260509183315 | 87 | 269 | 1.7 | 4.3 | 0.00 | 0.21 | 0.00 | 76 | 1010.2 |
| 20260509182319 | 86 | 274 | 2.6 | 6.1 | 0.00 | 0.21 | 0.00 | 74 | 1010.0 |
| 20260509181812 | 87 | 327 | 1.7 | 6.1 | 0.00 | 0.21 | 0.00 | 74 | 1010.3 |
| 20260509181307 | 87 | 290 | 0.9 | 5.2 | 0.00 | 0.21 | 0.00 | 75 | 1010.5 |
| 20260509180801 | 86 | 274 | 2.6 | 7.0 | 0.00 | 0.21 | 0.00 | 76 | 1010.5 |
| 20260509180254 | 86 | 290 | 3.5 | 7.8 | 0.00 | 0.21 | 0.00 | 74 | 1010.6 |
| 20260509175749 | 86 | 278 | 3.5 | 7.8 | 0.00 | 0.21 | 0.00 | 74 | 1010.8 |
| 20260509175242 | 86 | 282 | 2.6 | 7.8 | 0.00 | 0.21 | 0.00 | 74 | 1010.7 |
| 20260509175000 | 86 | 271 | 3.5 | 7.8 | 0.00 | 0.21 | 0.00 | 74 | 1010.8 |
| 20260509174229 | 86 | 290 | 4.3 | 7.8 | 0.00 | 0.21 | 0.00 | 74 | 1010.9 |
| 20260509173723 | 85 | 290 | 5.2 | 9.6 | 0.00 | 0.21 | 0.00 | 74 | 1010.9 |
| 20260509173439 | 85 | 276 | 4.3 | 9.6 | 0.00 | 0.21 | 0.00 | 75 | 1011.0 |
| 20260509172711 | 85 | 295 | 4.3 | 7.0 | 0.00 | 0.21 | 0.00 | 76 | 1011.0 |
| 20260509172205 | 85 | 310 | 4.3 | 8.7 | 0.00 | 0.21 | 0.00 | 75 | 1010.9 |
| 20260509172136 | 85 | 275 | 4.3 | 8.7 | 0.00 | 0.21 | 0.00 | 75 | 1011.0 |